TimeCDT,TemperatureF,Dew PointF,Humidity,Sea Level PressureIn,VisibilityMPH,Wind Direction,Wind SpeedMPH,Gust SpeedMPH,PrecipitationIn,Events,Conditions,WindDirDegrees,DateUTC
12:53 AM,71.1,62.1,73,29.90,10.0,SSW,6.9,-,N/A,,Clear,210,2013-05-16 05:53:00
1:53 AM,71.1,60.1,68,29.89,10.0,South,3.5,-,N/A,,Partly Cloudy,190,2013-05-16 06:53:00
2:53 AM,70.0,60.1,71,29.91,10.0,South,5.8,-,N/A,,Partly Cloudy,170,2013-05-16 07:53:00
3:53 AM,69.1,60.1,73,29.91,10.0,South,3.5,-,N/A,,Mostly Cloudy,170,2013-05-16 08:53:00
4:53 AM,68.0,60.1,76,29.94,10.0,Calm,Calm,-,N/A,,Clear,0,2013-05-16 09:53:00
5:53 AM,68.0,60.1,76,29.95,10.0,Calm,Calm,-,N/A,,Scattered Clouds,0,2013-05-16 10:53:00
6:53 AM,66.9,61.0,81,29.96,6.0,West,3.5,-,0.03,Rain,Light Rain,270,2013-05-16 11:53:00
7:53 AM,66.9,62.1,84,29.97,10.0,SE,3.5,-,0.00,,Overcast,140,2013-05-16 12:53:00
8:53 AM,68.0,62.1,81,29.97,10.0,SE,3.5,-,N/A,,Mostly Cloudy,130,2013-05-16 13:53:00
9:53 AM,70.0,62.1,76,29.97,10.0,SSE,4.6,-,N/A,,Mostly Cloudy,150,2013-05-16 14:53:00
10:53 AM,72.0,60.1,66,29.96,10.0,SSW,6.9,-,N/A,,Overcast,210,2013-05-16 15:53:00
11:53 AM,73.0,61.0,66,29.95,10.0,SW,3.5,-,N/A,,Overcast,220,2013-05-16 16:53:00
12:53 PM,75.0,60.1,60,29.93,10.0,Calm,Calm,-,0.00,,Clear,0,2013-05-16 17:53:00
2:53 PM,75.9,60.1,58,29.91,10.0,Variable,3.5,-,N/A,,Scattered Clouds,0,2013-05-16 19:53:00
3:53 PM,75.0,61.0,62,29.91,10.0,Calm,Calm,-,N/A,,Scattered Clouds,0,2013-05-16 20:53:00
5:53 PM,72.0,64.0,76,29.90,10.0,Calm,Calm,-,0.00,Rain,Light Rain,0,2013-05-16 22:53:00
6:53 PM,72.0,64.9,78,29.88,10.0,Calm,Calm,-,0.00,,Mostly Cloudy,0,2013-05-16 23:53:00
7:53 PM,71.1,66.0,84,29.89,10.0,Calm,Calm,-,N/A,,Overcast,0,2013-05-17 00:53:00
8:53 PM,71.1,59.0,66,29.88,10.0,South,3.5,-,N/A,,Overcast,180,2013-05-17 01:53:00
9:53 PM,71.1,59.0,66,29.90,10.0,South,5.8,-,N/A,,Overcast,170,2013-05-17 02:53:00
10:53 PM,70.0,60.1,71,29.91,10.0,SSE,4.6,-,N/A,,Overcast,160,2013-05-17 03:53:00
11:53 PM,70.0,60.1,71,29.91,10.0,South,5.8,-,N/A,,Overcast,180,2013-05-17 04:53:00